Location: Unspecified
(0.0000°N, 0.0000°E)
Time: 17:02:39
(UTC+01:00)

Centaur D-1AR AC-41 - Visible Passes

Search period start: 05 March 2015 00:00
Search period end: 15 March 2015 00:00
Orbit: 596 x 36246 km, 21.2° (Epoch: 04 March)

Date Brightness Start Highest point End Pass type
(mag) Time Alt. Az. Time Alt. Az. Time Alt. Az.
05 Mar 7.9 15:24:26 10° W 01:08:30 41° W 01:08:30 41° W visible
06 Mar 7.3 12:46:21 10° W 22:34:44 89° SSE 22:44:26 73° ENE visible
07 Mar 6.0 10:14:26 10° WNW 10:22:55 85° NNE 20:20:22 19° E visible
09 Mar 8.3 16:50:26 10° WSW 02:19:58 15° W 02:19:58 15° W visible
10 Mar 7.4 14:03:07 10° W 23:55:55 67° WNW 23:55:55 67° WNW visible
11 Mar 6.8 11:28:22 10° W 20:45:24 79° SSE 21:31:52 44° ENE visible
13 Mar 5.4 06:29:42 10° N 06:31:12 12° NNE 06:33:20 10° NE visible
